Weather in Winnipeg

Canada     49°53′16″N   97°08′03″W
temp.,
°C
wind,
m/s
gust,
m/s
humid.,
%
clouds,
%
prec.,
mm/h
press.,
hPa
HPBL,
m
24 september, fri
fri2401:00+15nnw61128100 0.0 1012625
04:00+12nw41032100 0.0 1013514
07:00+9w512401 0.0 1014383
10:00+12wnw71041100 0.0 10141102
13:00+13wnw7936100 0.0 10121741
16:00+11nw71060100 0.1 10121337
19:00+12nw48567 0.1 1011420
22:00+12nw3861100 0.0 1012362
25 september, sat
sat2501:00+9wsw3772100 0.0 1011117
04:00+10wsw4955100 0.0 1010241
07:00+10wsw3748100 0.0 1009200
10:00+14sw4626100 0.0 1008287
13:00+21sw69195 0.0 10041121
16:00+21wsw61027100 0.0 1002734
19:00+20ssw1134100 0.0 100212
22:00+17ese2240100 0.0 100214
26 september, sun
sun2601:00+16ne3442100 0.0 100244
04:00+15ne3645100 0.0 1003111
07:00+13nne3758100 0.0 1004122
10:00+16ne574117 0.0 1005359
13:00+21nne45305 0.0 1006856
16:00+21nne56331 0.0 1006934
19:00+17nne484717 0.0 1008247
22:00+13nne3863100 0.0 1009170
27 september, mon
mon2701:00+12ene376542 0.0 1010136
04:00+11e357058 0.0 1010108
07:00+11ese3674100 0.0 1011122
10:00+15se46555 0.0 1010366
13:00+22sse67367 0.0 1008974
16:00+25s78295 0.0 10061326
19:00+22sse333899 0.0 100539
22:00+18se495152 0.0 1005147
28 september, tue
tue2801:00+16s346359 0.0 100647
04:00+16w225322 0.0 100715
07:00+15w23425 0.0 100816
10:00+20wsw12315 0.0 1009163
13:00+27ssw22227 0.0 1009579
16:00+29sse211931 0.0 10081004
19:00+24ese222541 0.0 100811
22:00+20se4103393 0.0 1008160